TimeSAST,TemperatureF,Dew PointF,Humidity,Sea Level PressureIn,VisibilityMPH,Wind Direction,Wind SpeedMPH,Gust SpeedMPH,PrecipitationIn,Events,Conditions,WindDirDegrees,DateUTC
12:00 AM,62.6,59.0,88,30.09,5.6,East,4.6,-,N/A,,Unknown,90,2013-01-28 22:00:00
1:00 AM,60.8,57.2,88,30.09,5.0,East,5.8,-,N/A,,Unknown,80,2013-01-28 23:00:00
2:00 AM,61,57,84,30.07,6,East,6.9,,,,,90,2013-01-29 00:00:00
2:00 AM,60.8,57.2,88,30.06,5.6,East,6.9,-,N/A,,Partly Cloudy,90,2013-01-29 00:00:00
3:00 AM,60.8,57.2,88,30.04,-9999.0,East,8.1,-,N/A,,Clear,100,2013-01-29 01:00:00
4:00 AM,60.8,55.4,82,30.04,-9999.0,East,10.4,-,N/A,,Clear,90,2013-01-29 02:00:00
5:00 AM,60,56,81,30.01,12,East,9.2,,,,,100,2013-01-29 03:00:00
5:00 AM,60.8,55.4,82,30.01,-9999.0,East,8.1,-,N/A,,Clear,100,2013-01-29 03:00:00
6:00 AM,59.0,55.4,88,30.01,-9999.0,East,5.8,-,N/A,,Clear,90,2013-01-29 04:00:00
7:00 AM,62.6,55.4,77,29.98,-9999.0,East,3.5,-,N/A,,Clear,90,2013-01-29 05:00:00
8:00 AM,67,57,62,29.99,12,ESE,10.4,,,,,110,2013-01-29 06:00:00
8:00 AM,68.0,57.2,68,29.98,-9999.0,ESE,10.4,-,N/A,,Clear,110,2013-01-29 06:00:00
9:00 AM,71.6,59.0,64,29.98,6.2,East,10.4,-,N/A,,Partly Cloudy,100,2013-01-29 07:00:00
10:00 AM,71.6,59.0,64,29.95,6.2,ESE,8.1,-,N/A,,Partly Cloudy,120,2013-01-29 08:00:00
11:00 AM,74,59,50,29.96,12,ESE,8.1,,,,Scattered Clouds,110,2013-01-29 09:00:00
11:00 AM,73.4,60.8,65,29.95,6.2,Variable,6.9,-,N/A,,Partly Cloudy,0,2013-01-29 09:00:00
12:00 PM,75.2,60.8,61,29.92,6.2,SE,6.9,-,N/A,,Partly Cloudy,130,2013-01-29 10:00:00
1:00 PM,77.0,62.6,61,29.92,-9999.0,ESE,11.5,-,N/A,,Clear,110,2013-01-29 11:00:00
2:00 PM,77,65,57,29.91,12,ESE,15.0,,,,Scattered Clouds,120,2013-01-29 12:00:00
2:00 PM,77.0,64.4,65,29.89,6.2,ESE,12.7,-,N/A,,Partly Cloudy,110,2013-01-29 12:00:00
3:00 PM,77.0,64.4,65,29.89,6.2,ESE,15.0,-,N/A,,Partly Cloudy,110,2013-01-29 13:00:00
4:00 PM,75.2,64.4,69,29.83,6.2,ESE,18.4,-,N/A,,Partly Cloudy,110,2013-01-29 14:00:00
5:00 PM,72,53,41,29.85,12,ESE,21.9,,,,Partly Cloudy,110,2013-01-29 15:00:00
5:00 PM,73.4,66.2,78,29.83,6.2,ESE,23.0,-,N/A,,Scattered Clouds,120,2013-01-29 15:00:00
6:00 PM,71.6,64.4,78,29.83,6.2,ESE,18.4,-,N/A,,Scattered Clouds,110,2013-01-29 16:00:00
7:00 PM,69.8,64.4,83,29.83,6.2,ESE,16.1,-,N/A,,Scattered Clouds,110,2013-01-29 17:00:00
8:00 PM,69,65,84,29.87,12,ESE,12.7,,,,Mostly Cloudy,110,2013-01-29 18:00:00
8:00 PM,69.8,64.4,83,29.86,6.2,ESE,11.5,-,N/A,,Mostly Cloudy,110,2013-01-29 18:00:00
9:00 PM,68.0,66.2,94,29.86,4.3,East,10.4,-,N/A,,Overcast,100,2013-01-29 19:00:00
10:00 PM,69.8,66.2,88,29.95,3.7,WNW,6.9,-,N/A,Rain,Light Rain,290,2013-01-29 20:00:00
11:00 PM,68.0,66.2,94,29.92,3.7,ENE,8.1,-,N/A,Rain,Light Rain,70,2013-01-29 21:00:00